Time,TemperatureF,DewpointF,PressureIn,WindDirection,WindDirectionDegrees,WindSpeedMPH,WindSpeedGustMPH,Humidity,HourlyPrecipIn,Conditions,Clouds,dailyrainin,SoftwareType,DateUTC
2013-01-20 00:04:00,21.0,19.0,29.63,East,82,0.0,5.0,92,0.01,-SN,OVC,0.01,WeatherDisplay:10.37,2013-01-20 05:04:00,
2013-01-20 00:09:00,21.0,19.1,29.63,ENE,78,0.0,3.0,92,0.01,-SN,OVC,0.02,WeatherDisplay:10.37,2013-01-20 05:09:00,
2013-01-20 00:14:00,21.1,19.1,29.62,East,88,1.0,3.0,92,0.01,-SN,OVC,0.02,WeatherDisplay:10.37,2013-01-20 05:14:00,
2013-01-20 00:19:00,21.1,19.1,29.61,East,83,0.0,1.0,92,0.01,-SN,OVC,0.03,WeatherDisplay:10.37,2013-01-20 05:19:00,
2013-01-20 00:24:00,21.1,19.1,29.61,ENE,57,1.0,3.0,92,0.01,-SN,OVC,0.04,WeatherDisplay:10.37,2013-01-20 05:24:00,
2013-01-20 00:29:00,21.1,19.1,29.60,ENE,73,0.0,7.0,92,0.00,-SN,OVC,0.04,WeatherDisplay:10.37,2013-01-20 05:29:00,
2013-01-20 00:34:00,21.2,19.2,29.60,ENE,67,0.0,3.0,92,0.01,-SN,OVC,0.05,WeatherDisplay:10.37,2013-01-20 05:34:00,
2013-01-20 00:39:00,21.2,19.2,29.59,NNE,22,1.0,3.0,92,0.00,-SN,OVC,0.05,WeatherDisplay:10.37,2013-01-20 05:39:00,
2013-01-20 00:44:00,21.2,19.2,29.59,NE,36,0.0,2.0,92,0.01,-SN,OVC,0.05,WeatherDisplay:10.37,2013-01-20 05:44:00,
2013-01-20 00:50:00,21.3,19.3,29.59,NNE,33,0.0,4.0,92,0.00,-SN,OVC,0.05,WeatherDisplay:10.37,2013-01-20 05:50:00,
2013-01-20 00:54:00,21.3,19.3,29.59,NNE,13,0.0,2.0,92,0.01,-SN,OVC,0.06,WeatherDisplay:10.37,2013-01-20 05:54:00,
2013-01-20 00:59:00,21.4,19.7,29.59,NNE,16,0.0,1.0,93,0.00,-SN,OVC,0.06,WeatherDisplay:10.37,2013-01-20 05:59:00,
2013-01-20 01:04:00,21.4,19.7,29.58,ENE,71,0.0,1.0,93,0.01,-SN,OVC,0.07,WeatherDisplay:10.37,2013-01-20 06:04:00,
2013-01-20 01:09:00,21.5,19.8,29.58,East,87,0.0,2.0,93,0.01,-SN,OVC,0.08,WeatherDisplay:10.37,2013-01-20 06:09:00,
2013-01-20 01:14:00,21.5,19.8,29.58,ENE,70,0.0,1.0,93,0.01,-SN,OVC,0.09,WeatherDisplay:10.37,2013-01-20 06:14:00,
2013-01-20 01:19:00,21.6,19.9,29.58,NE,44,0.0,1.0,93,0.01,-SN,OVC,0.09,WeatherDisplay:10.37,2013-01-20 06:19:00,
2013-01-20 01:24:00,21.6,19.9,29.57,NE,42,0.0,2.0,93,0.00,-SN,OVC,0.10,WeatherDisplay:10.37,2013-01-20 06:24:00,
2013-01-20 01:29:00,21.7,20.0,29.57,East,96,0.0,0.0,93,0.02,-SN,OVC,0.11,WeatherDisplay:10.37,2013-01-20 06:29:00,
2013-01-20 01:34:00,21.8,20.1,29.57,ENE,72,0.0,1.0,93,0.00,-SN,OVC,0.11,WeatherDisplay:10.37,2013-01-20 06:34:00,
2013-01-20 01:39:00,21.9,20.2,29.56,NNE,28,0.0,0.0,93,0.01,-SN,OVC,0.12,WeatherDisplay:10.37,2013-01-20 06:39:00,
2013-01-20 01:44:00,22.0,20.3,29.56,NNE,19,0.0,2.0,93,0.01,-SN,OVC,0.13,WeatherDisplay:10.37,2013-01-20 06:44:00,
2013-01-20 01:49:00,22.1,20.4,29.56,North,5,0.0,1.0,93,0.00,-SN,OVC,0.13,WeatherDisplay:10.37,2013-01-20 06:49:00,
2013-01-20 01:54:00,22.2,20.5,29.55,ENE,67,0.0,2.0,93,0.01,-SN,OVC,0.13,WeatherDisplay:10.37,2013-01-20 06:54:00,
2013-01-20 01:59:00,22.3,20.6,29.55,East,97,0.0,1.0,93,0.01,-SN,OVC,0.14,WeatherDisplay:10.37,2013-01-20 06:59:00,
2013-01-20 02:04:00,22.4,20.7,29.54,East,93,0.0,1.0,93,0.00,-SN,OVC,0.14,WeatherDisplay:10.37,2013-01-20 07:04:00,
2013-01-20 02:09:00,22.4,20.7,29.54,ENE,57,0.0,1.0,93,0.01,-SN,OVC,0.15,WeatherDisplay:10.37,2013-01-20 07:09:00,
2013-01-20 02:14:00,22.6,20.8,29.54,ENE,64,0.0,2.0,93,0.01,-SN,OVC,0.16,WeatherDisplay:10.37,2013-01-20 07:14:00,
2013-01-20 02:19:00,22.6,21.1,29.54,ENE,65,0.0,1.0,94,0.00,-SN,OVC,0.16,WeatherDisplay:10.37,2013-01-20 07:19:00,
2013-01-20 02:24:00,22.7,21.3,29.54,NE,37,0.0,1.0,94,0.01,-SN,OVC,0.17,WeatherDisplay:10.37,2013-01-20 07:24:00,
2013-01-20 02:29:00,22.8,21.4,29.53,NNE,14,0.0,2.0,94,0.00,-SN,OVC,0.17,WeatherDisplay:10.37,2013-01-20 07:29:00,
2013-01-20 02:34:00,22.9,21.4,29.53,North,9,0.0,0.0,94,0.01,-SN,OVC,0.17,WeatherDisplay:10.37,2013-01-20 07:34:00,
2013-01-20 02:39:00,23.0,21.5,29.52,North,9,0.0,0.0,94,0.01,-SN,OVC,0.18,WeatherDisplay:10.37,2013-01-20 07:39:00,
2013-01-20 02:44:00,23.1,21.6,29.51,North,8,0.0,0.0,94,0.00,-SN,OVC,0.18,WeatherDisplay:10.37,2013-01-20 07:44:00,
2013-01-20 02:49:00,23.2,21.7,29.51,NE,38,0.0,1.0,94,0.01,-SN,OVC,0.19,WeatherDisplay:10.37,2013-01-20 07:49:00,
2013-01-20 02:59:00,23.4,21.9,29.50,NE,35,0.0,1.0,94,0.01,-SN,OVC,0.20,WeatherDisplay:10.37,2013-01-20 07:59:00,
2013-01-20 03:04:00,23.5,22.0,29.50,NNE,25,0.0,0.0,94,0.00,-SN,OVC,0.20,WeatherDisplay:10.37,2013-01-20 08:04:00,
2013-01-20 03:09:00,23.6,22.1,29.49,NNE,25,0.0,0.0,94,0.01,-SN,OVC,0.21,WeatherDisplay:10.37,2013-01-20 08:09:00,
2013-01-20 03:14:00,23.7,22.2,29.48,NNE,25,0.0,0.0,94,0.01,-SN,OVC,0.22,WeatherDisplay:10.37,2013-01-20 08:14:00,
2013-01-20 03:19:00,23.8,22.3,29.47,NNE,25,0.0,0.0,94,0.01,-SN,OVC,0.23,WeatherDisplay:10.37,2013-01-20 08:19:00,
2013-01-20 03:24:00,23.9,22.4,29.46,NNE,25,0.0,0.0,94,0.00,-SN,OVC,0.23,WeatherDisplay:10.37,2013-01-20 08:24:00,
2013-01-20 03:29:00,23.9,22.5,29.45,NNE,25,0.0,0.0,94,0.01,-SN,OVC,0.24,WeatherDisplay:10.37,2013-01-20 08:29:00,
2013-01-20 03:34:00,24.1,22.6,29.44,NNE,23,0.0,2.0,94,0.00,-SN,OVC,0.24,WeatherDisplay:10.37,2013-01-20 08:34:00,
2013-01-20 03:39:00,24.2,22.7,29.43,NE,50,0.0,1.0,94,0.00,-SN,OVC,0.24,WeatherDisplay:10.37,2013-01-20 08:39:00,
2013-01-20 03:44:00,24.3,22.8,29.42,NE,49,0.0,2.0,94,0.00,-SN,OVC,0.24,WeatherDisplay:10.37,2013-01-20 08:44:00,
2013-01-20 03:49:00,24.4,22.9,29.41,NNE,16,0.0,1.0,94,0.00,-SN,OVC,0.24,WeatherDisplay:10.37,2013-01-20 08:49:00,
2013-01-20 03:54:00,24.4,22.9,29.41,North,5,0.0,0.0,94,0.00,-SN,OVC,0.24,WeatherDisplay:10.37,2013-01-20 08:54:00,
2013-01-20 03:59:00,24.5,23.1,29.41,NE,35,0.0,1.0,94,0.00,-SN,OVC,0.24,WeatherDisplay:10.37,2013-01-20 08:59:00,
2013-01-20 04:04:00,24.6,23.1,29.41,SE,133,0.0,1.0,94,0.00,-SN,OVC,0.24,WeatherDisplay:10.37,2013-01-20 09:04:00,
2013-01-20 04:09:00,24.8,23.3,29.40,SSW,212,0.0,1.0,94,0.00,-SN,OVC,0.24,WeatherDisplay:10.37,2013-01-20 09:09:00,
2013-01-20 04:14:00,24.9,23.4,29.39,East,100,0.0,1.0,94,0.00,-SN,OVC,0.24,WeatherDisplay:10.37,2013-01-20 09:14:00,
2013-01-20 04:19:00,25.0,23.5,29.39,ENE,76,0.0,1.0,94,0.00,-SN,OVC,0.24,WeatherDisplay:10.37,2013-01-20 09:19:00,
2013-01-20 04:24:00,25.1,23.6,29.38,NW,322,0.0,2.0,94,0.00,-SN,OVC,0.24,WeatherDisplay:10.37,2013-01-20 09:24:00,
2013-01-20 04:29:00,25.2,23.7,29.38,NNW,343,0.0,1.0,94,0.00,-SN,OVC,0.24,WeatherDisplay:10.37,2013-01-20 09:29:00,
2013-01-20 04:34:00,25.3,23.8,29.37,NNE,17,0.0,3.0,94,0.00,-SN,OVC,0.24,WeatherDisplay:10.37,2013-01-20 09:34:00,
2013-01-20 04:39:00,25.4,23.9,29.36,NNE,18,0.0,1.0,94,0.00,-SN,OVC,0.24,WeatherDisplay:10.37,2013-01-20 09:39:00,
2013-01-20 04:44:00,25.5,24.0,29.35,NNE,16,0.0,0.0,94,0.00,-SN,OVC,0.24,WeatherDisplay:10.37,2013-01-20 09:44:00,
2013-01-20 04:49:00,25.5,24.0,29.35,North,8,1.0,2.0,94,0.00,-SN,OVC,0.24,WeatherDisplay:10.37,2013-01-20 09:49:00,
2013-01-20 04:54:00,25.6,24.4,29.34,NNW,338,0.0,1.0,95,0.00,-SN,OVC,0.24,WeatherDisplay:10.37,2013-01-20 09:54:00,
2013-01-20 04:59:00,25.7,24.5,29.33,NNE,22,0.0,1.0,95,0.00,-SN,OVC,0.24,WeatherDisplay:10.37,2013-01-20 09:59:00,
2013-01-20 05:04:00,25.8,24.5,29.33,ESE,116,0.0,1.0,95,0.00,-SN,OVC,0.24,WeatherDisplay:10.37,2013-01-20 10:04:00,
2013-01-20 05:09:00,25.9,24.7,29.32,ESE,115,1.0,2.0,95,0.00,-SN,OVC,0.24,WeatherDisplay:10.37,2013-01-20 10:09:00,
2013-01-20 05:14:00,26.0,24.7,29.32,ENE,73,0.0,1.0,95,0.00,-SN,OVC,0.24,WeatherDisplay:10.37,2013-01-20 10:14:00,
2013-01-20 05:19:00,26.0,24.8,29.31,East,79,0.0,1.0,95,0.00,-SN,OVC,0.24,WeatherDisplay:10.37,2013-01-20 10:19:00,
2013-01-20 05:24:00,26.1,24.9,29.30,ESE,103,0.0,3.0,95,0.00,-SN,OVC,0.24,WeatherDisplay:10.37,2013-01-20 10:24:00,
2013-01-20 05:29:00,26.2,25.0,29.29,ESE,112,0.0,1.0,95,0.00,-SN,OVC,0.24,WeatherDisplay:10.37,2013-01-20 10:29:00,
2013-01-20 05:34:00,26.3,25.1,29.29,NNW,342,0.0,0.0,95,0.00,-SN,OVC,0.24,WeatherDisplay:10.37,2013-01-20 10:34:00,
2013-01-20 05:39:00,26.4,25.2,29.28,North,3,0.0,1.0,95,0.00,-SN,OVC,0.24,WeatherDisplay:10.37,2013-01-20 10:39:00,
2013-01-20 05:44:00,26.5,25.3,29.28,NE,46,0.0,2.0,95,0.00,OVC,OVC,0.24,WeatherDisplay:10.37,2013-01-20 10:44:00,
2013-01-20 05:49:00,26.6,25.4,29.27,ENE,64,0.0,0.0,95,0.00,OVC,OVC,0.24,WeatherDisplay:10.37,2013-01-20 10:49:00,
2013-01-20 05:54:00,26.8,25.6,29.26,ENE,77,0.0,2.0,95,0.00,OVC,OVC,0.24,WeatherDisplay:10.37,2013-01-20 10:54:00,
2013-01-20 05:59:00,26.9,25.7,29.26,South,185,0.0,1.0,95,0.00,OVC,OVC,0.24,WeatherDisplay:10.37,2013-01-20 10:59:00,
2013-01-20 06:04:00,27.0,25.8,29.25,West,269,0.0,0.0,95,0.00,OVC,OVC,0.24,WeatherDisplay:10.37,2013-01-20 11:04:00,
2013-01-20 06:09:00,27.1,25.9,29.25,WNW,300,0.0,0.0,95,0.00,OVC,OVC,0.24,WeatherDisplay:10.37,2013-01-20 11:09:00,
2013-01-20 06:14:00,27.2,26.0,29.24,North,359,0.0,0.0,95,0.00,OVC,OVC,0.24,WeatherDisplay:10.37,2013-01-20 11:14:00,
2013-01-20 06:19:00,27.3,26.1,29.24,NNE,15,0.0,2.0,95,0.00,OVC,OVC,0.24,WeatherDisplay:10.37,2013-01-20 11:19:00,
2013-01-20 06:24:00,27.3,26.1,29.24,NNE,17,0.0,1.0,95,0.00,OVC,OVC,0.24,WeatherDisplay:10.37,2013-01-20 11:24:00,
2013-01-20 06:29:00,27.4,26.2,29.25,NW,315,1.0,3.0,95,0.00,OVC,OVC,0.24,WeatherDisplay:10.37,2013-01-20 11:29:00,
2013-01-20 06:34:00,27.5,26.3,29.25,NW,321,1.0,4.0,95,0.00,OVC,OVC,0.24,WeatherDisplay:10.37,2013-01-20 11:34:00,
2013-01-20 06:39:00,27.7,26.5,29.25,NW,310,3.0,7.0,95,0.00,OVC,OVC,0.24,WeatherDisplay:10.37,2013-01-20 11:39:00,
2013-01-20 06:44:00,27.8,26.6,29.26,WNW,301,0.0,3.0,95,0.00,OVC,OVC,0.24,WeatherDisplay:10.37,2013-01-20 11:44:00,
2013-01-20 06:49:00,27.9,26.7,29.25,NW,309,0.0,1.0,95,0.00,OVC,OVC,0.24,WeatherDisplay:10.37,2013-01-20 11:49:00,
2013-01-20 06:54:00,28.0,26.8,29.25,NW,306,0.0,0.0,95,0.00,OVC,OVC,0.24,WeatherDisplay:10.37,2013-01-20 11:54:00,
2013-01-20 06:59:00,28.2,27.0,29.25,West,277,2.0,8.0,95,0.00,OVC,OVC,0.24,WeatherDisplay:10.37,2013-01-20 11:59:00,
2013-01-20 07:04:00,28.5,27.5,29.24,WSW,249,1.0,6.0,96,0.01,RA,OVC,0.24,WeatherDisplay:10.37,2013-01-20 12:04:00,
2013-01-20 07:09:00,28.9,27.9,29.24,SSW,213,2.0,7.0,96,0.00,RA,OVC,0.24,WeatherDisplay:10.37,2013-01-20 12:09:00,
2013-01-20 07:14:00,29.5,28.5,29.23,SSW,212,1.0,5.0,96,0.00,-RA,OVC,0.24,WeatherDisplay:10.37,2013-01-20 12:14:00,
2013-01-20 07:19:00,30.2,29.2,29.23,South,191,0.0,8.0,96,0.00,-RA,OVC,0.24,WeatherDisplay:10.37,2013-01-20 12:19:00,
2013-01-20 07:24:00,30.7,29.7,29.22,SSW,192,1.0,5.0,96,0.00,-RA,OVC,0.24,WeatherDisplay:10.37,2013-01-20 12:24:00,
2013-01-20 07:29:00,31.2,30.2,29.22,SW,214,2.0,7.0,96,0.01,-RA,OVC,0.25,WeatherDisplay:10.37,2013-01-20 12:29:00,
2013-01-20 07:35:00,32.0,32.0,29.23,SW,215,3.0,14.0,100,0.01,-RA,OVC,0.26,WeatherDisplay:10.37,2013-01-20 12:35:00,
2013-01-20 07:44:00,33.2,33.2,29.23,SW,222,5.0,14.0,100,0.00,-RA,OVC,0.26,WeatherDisplay:10.37,2013-01-20 12:44:00,
2013-01-20 07:50:00,33.7,33.7,29.23,SSW,213,3.0,13.0,100,0.00,-RA,OVC,0.26,WeatherDisplay:10.37,2013-01-20 12:50:00,
2013-01-20 07:59:00,34.3,34.3,29.24,SW,232,7.0,16.0,100,0.00,-RA,OVC,0.26,WeatherDisplay:10.37,2013-01-20 12:59:00,
2013-01-20 08:04:00,34.5,34.5,29.23,SW,226,7.0,17.0,100,0.00,-RA,OVC,0.26,WeatherDisplay:10.37,2013-01-20 13:04:00,
2013-01-20 08:09:00,34.5,34.5,29.23,SW,215,5.0,12.0,100,0.00,-RA,OVC,0.26,WeatherDisplay:10.37,2013-01-20 13:09:00,
2013-01-20 08:14:00,34.5,34.5,29.24,SW,224,6.0,12.0,100,0.00,-RA,OVC,0.26,WeatherDisplay:10.37,2013-01-20 13:14:00,
2013-01-20 08:19:00,34.5,34.5,29.24,SW,224,8.0,15.0,100,0.00,-RA,OVC,0.26,WeatherDisplay:10.37,2013-01-20 13:19:00,
2013-01-20 08:29:00,34.5,33.5,29.25,SW,229,7.0,18.0,96,0.00,-RA,OVC,0.26,WeatherDisplay:10.37,2013-01-20 13:29:00,
2013-01-20 08:34:00,34.6,34.6,29.25,SSW,208,5.0,20.0,100,0.00,-RA,OVC,0.26,WeatherDisplay:10.37,2013-01-20 13:34:00,
2013-01-20 08:40:00,34.7,33.7,29.27,SW,215,6.0,24.0,96,0.00,-RA,OVC,0.26,WeatherDisplay:10.37,2013-01-20 13:40:00,
2013-01-20 08:45:00,34.9,33.9,29.27,SW,223,10.0,25.0,96,0.01,-RA,OVC,0.27,WeatherDisplay:10.37,2013-01-20 13:45:00,
2013-01-20 08:55:00,35.0,33.4,29.27,WSW,248,5.0,16.0,94,0.00,-RA,OVC,0.27,WeatherDisplay:10.37,2013-01-20 13:55:00,
2013-01-20 09:00:00,34.9,32.8,29.28,West,271,7.0,21.0,92,0.00,-RA,OVC,0.27,WeatherDisplay:10.37,2013-01-20 14:00:00,
2013-01-20 09:09:00,34.5,32.4,29.29,West,264,3.0,12.0,92,0.00,-RA,OVC,0.27,WeatherDisplay:10.37,2013-01-20 14:09:00,
2013-01-20 10:34:00,32.8,30.5,29.32,SW,225,7.0,15.0,91,0.00,OVC,OVC,0.27,WeatherDisplay:10.37,2013-01-20 15:34:00,
2013-01-20 10:39:00,32.7,30.6,29.32,SW,224,8.0,15.0,92,0.00,OVC,OVC,0.27,WeatherDisplay:10.37,2013-01-20 15:39:00,
2013-01-20 10:44:00,32.5,30.7,29.33,WSW,247,7.0,14.0,93,0.00,OVC,OVC,0.27,WeatherDisplay:10.37,2013-01-20 15:44:00,
2013-01-20 10:49:00,32.4,30.6,29.33,WSW,245,6.0,14.0,93,0.01,RA,OVC,0.28,WeatherDisplay:10.37,2013-01-20 15:49:00,
2013-01-20 10:54:00,32.3,30.5,29.33,SW,227,5.0,15.0,93,0.00,RA,OVC,0.28,WeatherDisplay:10.37,2013-01-20 15:54:00,
2013-01-20 10:59:00,32.2,30.4,29.33,WSW,238,5.0,14.0,93,0.01,RA,OVC,0.28,WeatherDisplay:10.37,2013-01-20 15:59:00,
2013-01-20 11:04:00,32.2,30.4,29.34,WSW,248,6.0,13.0,93,0.01,RA,OVC,0.29,WeatherDisplay:10.37,2013-01-20 16:04:00,
2013-01-20 11:09:00,32.2,30.4,29.34,WSW,247,6.0,14.0,93,0.00,RA,OVC,0.29,WeatherDisplay:10.37,2013-01-20 16:09:00,
2013-01-20 11:14:00,32.2,30.1,29.34,WSW,256,9.0,17.0,92,0.00,,OVC,0.29,WeatherDisplay:10.37,2013-01-20 16:14:00,
2013-01-20 11:19:00,32.3,29.9,29.34,WSW,242,5.0,16.0,91,0.00,,OVC,0.29,WeatherDisplay:10.37,2013-01-20 16:19:00,
2013-01-20 11:24:00,32.4,29.8,29.34,WSW,242,8.0,16.0,90,0.00,,OVC,0.29,WeatherDisplay:10.37,2013-01-20 16:24:00,
2013-01-20 11:29:00,32.8,30.2,29.34,WSW,256,5.0,12.0,90,0.00,,OVC,0.29,WeatherDisplay:10.37,2013-01-20 16:29:00,
2013-01-20 11:34:00,32.7,29.8,29.34,SW,231,7.0,23.0,89,0.00,OVC,OVC,0.29,WeatherDisplay:10.37,2013-01-20 16:34:00,
2013-01-20 11:39:00,32.7,29.8,29.34,WSW,243,7.0,22.0,89,0.00,OVC,OVC,0.29,WeatherDisplay:10.37,2013-01-20 16:39:00,
2013-01-20 11:44:00,32.9,29.7,29.34,WSW,257,5.0,12.0,88,0.00,OVC,OVC,0.29,WeatherDisplay:10.37,2013-01-20 16:44:00,
2013-01-20 11:49:00,32.9,29.5,29.34,West,263,7.0,21.0,87,0.00,OVC,OVC,0.29,WeatherDisplay:10.37,2013-01-20 16:49:00,
2013-01-20 11:54:00,33.4,29.7,29.35,West,263,3.0,16.0,86,0.00,OVC,OVC,0.29,WeatherDisplay:10.37,2013-01-20 16:54:00,
2013-01-20 11:59:00,33.5,29.8,29.35,WNW,295,6.0,12.0,86,0.00,OVC,OVC,0.29,WeatherDisplay:10.37,2013-01-20 16:59:00,
2013-01-20 12:04:00,32.6,29.2,29.36,NW,309,13.0,22.0,87,0.00,OVC,OVC,0.29,WeatherDisplay:10.37,2013-01-20 17:04:00,
2013-01-20 12:09:00,31.2,27.8,29.37,NW,310,9.0,24.0,87,0.00,OVC,OVC,0.29,WeatherDisplay:10.37,2013-01-20 17:09:00,
2013-01-20 12:19:00,29.9,25.9,29.38,WNW,292,14.0,21.0,85,0.01,RA,OVC,0.30,WeatherDisplay:10.37,2013-01-20 17:19:00,
2013-01-20 12:24:00,29.9,25.4,29.38,WNW,289,8.0,16.0,83,0.00,RA,OVC,0.30,WeatherDisplay:10.37,2013-01-20 17:24:00,
2013-01-20 12:29:00,30.0,25.2,29.39,WNW,286,10.0,20.0,82,0.00,OVC,OVC,0.30,WeatherDisplay:10.37,2013-01-20 17:29:00,
2013-01-20 12:34:00,30.0,24.6,29.39,WNW,297,9.0,25.0,80,0.00,OVC,OVC,0.30,WeatherDisplay:10.37,2013-01-20 17:34:00,
2013-01-20 12:39:00,30.1,24.4,29.39,WNW,286,3.0,20.0,79,0.00,OVC,OVC,0.30,WeatherDisplay:10.37,2013-01-20 17:39:00,
2013-01-20 12:44:00,30.0,23.4,29.40,WNW,288,13.0,26.0,76,0.00,OVC,OVC,0.30,WeatherDisplay:10.37,2013-01-20 17:44:00,
2013-01-20 12:54:00,29.6,22.3,29.41,WNW,291,7.0,20.0,74,0.00,OVC,OVC,0.30,WeatherDisplay:10.37,2013-01-20 17:54:00,
2013-01-20 12:59:00,28.9,21.0,29.42,WNW,302,12.0,25.0,72,0.00,OVC,OVC,0.30,WeatherDisplay:10.37,2013-01-20 17:59:00,
2013-01-20 13:04:00,28.3,20.1,29.41,WNW,293,12.0,26.0,71,0.00,OVC,OVC,0.30,WeatherDisplay:10.37,2013-01-20 18:04:00,
2013-01-20 13:09:00,28.1,20.2,29.42,WNW,286,8.0,24.0,72,0.00,OVC,OVC,0.30,WeatherDisplay:10.37,2013-01-20 18:09:00,
2013-01-20 13:14:00,28.3,20.1,29.43,WNW,289,6.0,25.0,71,0.00,OVC,OVC,0.30,WeatherDisplay:10.37,2013-01-20 18:14:00,
2013-01-20 13:19:00,27.9,19.1,29.44,West,276,15.0,31.0,69,0.00,OVC,OVC,0.30,WeatherDisplay:10.37,2013-01-20 18:19:00,
2013-01-20 13:24:00,27.2,18.7,29.44,West,275,16.0,30.0,70,0.00,OVC,OVC,0.30,WeatherDisplay:10.37,2013-01-20 18:24:00,
2013-01-20 13:29:00,26.8,17.6,29.44,West,270,9.0,21.0,68,0.00,OVC,OVC,0.30,WeatherDisplay:10.37,2013-01-20 18:29:00,
2013-01-20 13:34:00,26.8,17.3,29.45,WNW,286,10.0,23.0,67,0.00,OVC,OVC,0.30,WeatherDisplay:10.37,2013-01-20 18:34:00,
2013-01-20 13:39:00,26.5,16.3,29.45,WNW,294,16.0,29.0,65,0.00,OVC,OVC,0.30,WeatherDisplay:10.37,2013-01-20 18:39:00,
2013-01-20 13:44:00,26.0,15.9,29.46,WNW,290,12.0,28.0,65,0.00,OVC,OVC,0.30,WeatherDisplay:10.37,2013-01-20 18:44:00,
2013-01-20 13:50:00,25.7,15.5,29.47,WNW,289,13.0,24.0,65,0.00,OVC,OVC,0.30,WeatherDisplay:10.37,2013-01-20 18:50:00,
2013-01-20 13:59:00,25.1,14.6,29.49,West,280,12.0,21.0,64,0.00,OVC,OVC,0.30,WeatherDisplay:10.37,2013-01-20 18:59:00,
2013-01-20 14:04:00,24.7,13.9,29.49,WNW,300,12.0,21.0,63,0.00,OVC,OVC,0.30,WeatherDisplay:10.37,2013-01-20 19:04:00,
2013-01-20 14:09:00,24.2,13.0,29.49,West,274,10.0,26.0,62,0.00,OVC,OVC,0.30,WeatherDisplay:10.37,2013-01-20 19:09:00,
2013-01-20 14:14:00,23.9,12.4,29.50,West,277,7.0,20.0,61,0.00,SCT,OVC,0.30,WeatherDisplay:10.37,2013-01-20 19:14:00,
2013-01-20 14:19:00,24.2,12.7,29.51,WNW,285,12.0,28.0,61,0.00,SCT,OVC,0.30,WeatherDisplay:10.37,2013-01-20 19:19:00,
2013-01-20 14:24:00,23.7,13.3,29.52,WNW,290,14.0,24.0,64,0.00,SCT,OVC,0.30,WeatherDisplay:10.37,2013-01-20 19:24:00,
2013-01-20 14:29:00,22.6,12.6,29.53,WNW,286,10.0,26.0,65,0.00,SCT,OVC,0.30,WeatherDisplay:10.37,2013-01-20 19:29:00,
2013-01-20 14:34:00,21.6,12.0,29.55,West,278,13.0,26.0,66,0.00,SCT,OVC,0.30,WeatherDisplay:10.37,2013-01-20 19:34:00,
2013-01-20 14:39:00,20.9,11.0,29.55,WNW,290,9.0,22.0,65,0.00,SCT,OVC,0.30,WeatherDisplay:10.37,2013-01-20 19:39:00,
2013-01-20 14:44:00,20.7,10.8,29.56,WNW,287,10.0,23.0,65,0.00,SCT,OVC,0.30,WeatherDisplay:10.37,2013-01-20 19:44:00,
2013-01-20 14:49:00,20.5,11.6,29.57,WNW,293,9.0,20.0,68,0.00,SCT,OVC,0.30,WeatherDisplay:10.37,2013-01-20 19:49:00,
2013-01-20 14:54:00,19.6,10.4,29.58,WNW,301,13.0,21.0,67,0.00,SCT,OVC,0.30,WeatherDisplay:10.37,2013-01-20 19:54:00,
2013-01-20 14:59:00,18.4,9.6,29.59,NW,313,10.0,25.0,68,0.00,SCT,OVC,0.30,WeatherDisplay:10.37,2013-01-20 19:59:00,
2013-01-20 15:04:00,17.8,9.3,29.59,NW,310,13.0,25.0,69,0.00,SCT,OVC,0.30,WeatherDisplay:10.37,2013-01-20 20:04:00,
2013-01-20 15:09:00,17.4,8.3,29.60,WNW,295,9.0,26.0,67,0.00,SCT,OVC,0.30,WeatherDisplay:10.37,2013-01-20 20:09:00,
2013-01-20 15:14:00,17.0,7.6,29.61,WNW,286,10.0,20.0,66,0.00,FEW,OVC,0.30,WeatherDisplay:10.37,2013-01-20 20:14:00,
2013-01-20 15:19:00,16.7,6.6,29.62,NW,305,10.0,18.0,64,0.00,FEW,OVC,0.30,WeatherDisplay:10.37,2013-01-20 20:19:00,
2013-01-20 15:24:00,16.0,6.0,29.64,WNW,299,9.0,24.0,64,0.00,FEW,OVC,0.30,WeatherDisplay:10.37,2013-01-20 20:24:00,
2013-01-20 15:29:00,15.4,5.4,29.65,WNW,296,9.0,23.0,64,0.00,FEW,OVC,0.30,WeatherDisplay:10.37,2013-01-20 20:29:00,
2013-01-20 15:34:00,14.9,5.2,29.65,WNW,291,12.0,27.0,65,0.00,FEW,OVC,0.30,WeatherDisplay:10.37,2013-01-20 20:34:00,
2013-01-20 15:39:00,14.3,4.4,29.66,WNW,293,9.0,23.0,64,0.00,FEW,OVC,0.30,WeatherDisplay:10.37,2013-01-20 20:39:00,
2013-01-20 15:44:00,14.0,4.4,29.67,WNW,285,12.0,23.0,65,0.00,FEW,OVC,0.30,WeatherDisplay:10.37,2013-01-20 20:44:00,
2013-01-20 15:49:00,13.5,2.9,29.67,WNW,286,10.0,24.0,62,0.00,FEW,OVC,0.30,WeatherDisplay:10.37,2013-01-20 20:49:00,
2013-01-20 15:54:00,12.9,2.6,29.68,WNW,298,8.0,21.0,63,0.00,FEW,OVC,0.30,WeatherDisplay:10.37,2013-01-20 20:54:00,
2013-01-20 15:59:00,12.5,2.3,29.69,West,278,10.0,25.0,63,0.00,FEW,OVC,0.30,WeatherDisplay:10.37,2013-01-20 20:59:00,
2013-01-20 16:04:00,12.1,2.2,29.69,WNW,286,9.0,22.0,64,0.00,FEW,OVC,0.30,WeatherDisplay:10.37,2013-01-20 21:04:00,
2013-01-20 16:09:00,11.8,1.9,29.70,WNW,288,10.0,18.0,64,0.00,FEW,OVC,0.30,WeatherDisplay:10.37,2013-01-20 21:09:00,
2013-01-20 16:14:00,11.5,1.7,29.71,WNW,285,9.0,16.0,64,0.00,FEW,OVC,0.30,WeatherDisplay:10.37,2013-01-20 21:14:00,
2013-01-20 16:19:00,11.3,1.5,29.71,West,277,7.0,18.0,64,0.00,FEW,OVC,0.30,WeatherDisplay:10.37,2013-01-20 21:19:00,
2013-01-20 16:29:00,10.9,1.4,29.72,West,277,12.0,18.0,65,0.00,FEW,OVC,0.30,WeatherDisplay:10.37,2013-01-20 21:29:00,
2013-01-20 16:34:00,10.7,1.2,29.73,West,279,6.0,18.0,65,0.00,FEW,OVC,0.30,WeatherDisplay:10.37,2013-01-20 21:34:00,
2013-01-20 16:39:00,10.4,0.6,29.74,West,261,7.0,14.0,64,0.00,FEW,OVC,0.30,WeatherDisplay:10.37,2013-01-20 21:39:00,
2013-01-20 16:44:00,10.2,0.4,29.74,West,264,7.0,21.0,64,0.00,FEW,OVC,0.30,WeatherDisplay:10.37,2013-01-20 21:44:00,
2013-01-20 16:49:00,10.0,0.2,29.75,West,278,6.0,16.0,64,0.00,FEW,OVC,0.30,WeatherDisplay:10.37,2013-01-20 21:49:00,
2013-01-20 16:59:00,9.7,0.3,29.75,WNW,295,8.0,13.0,65,0.00,FEW,OVC,0.30,WeatherDisplay:10.37,2013-01-20 21:59:00,
2013-01-20 17:04:00,9.5,0.4,29.76,NW,310,5.0,9.0,66,0.00,FEW,OVC,0.30,WeatherDisplay:10.37,2013-01-20 22:04:00,
2013-01-20 17:09:00,9.4,0.6,29.76,WNW,300,3.0,12.0,67,0.00,FEW,OVC,0.30,WeatherDisplay:10.37,2013-01-20 22:09:00,
2013-01-20 17:14:00,9.3,0.8,29.76,WNW,287,6.0,10.0,68,0.00,FEW,OVC,0.30,WeatherDisplay:10.37,2013-01-20 22:14:00,
2013-01-20 17:19:00,9.1,0.7,29.77,WNW,287,5.0,12.0,68,0.00,FEW,OVC,0.30,WeatherDisplay:10.37,2013-01-20 22:19:00,
2013-01-20 17:24:00,9.0,0.9,29.77,WNW,296,6.0,10.0,69,0.00,FEW,OVC,0.30,WeatherDisplay:10.37,2013-01-20 22:24:00,
2013-01-20 17:29:00,9.0,0.9,29.77,WNW,291,5.0,13.0,69,0.00,FEW,OVC,0.30,WeatherDisplay:10.37,2013-01-20 22:29:00,
2013-01-20 17:34:00,8.9,1.1,29.78,WNW,301,5.0,10.0,70,0.00,FEW,OVC,0.30,WeatherDisplay:10.37,2013-01-20 22:34:00,
2013-01-20 17:39:00,8.8,1.0,29.78,WNW,293,1.0,7.0,70,0.00,FEW,OVC,0.30,WeatherDisplay:10.37,2013-01-20 22:39:00,
2013-01-20 17:44:00,8.6,0.8,29.78,West,270,5.0,9.0,70,0.00,FEW,OVC,0.30,WeatherDisplay:10.37,2013-01-20 22:44:00,
2013-01-20 17:49:00,8.5,0.7,29.79,West,269,5.0,14.0,70,0.00,FEW,OVC,0.30,WeatherDisplay:10.37,2013-01-20 22:49:00,
2013-01-20 17:54:00,8.5,0.7,29.79,West,271,2.0,13.0,70,0.00,FEW,OVC,0.30,WeatherDisplay:10.37,2013-01-20 22:54:00,
2013-01-20 17:59:00,8.4,0.9,29.80,West,263,3.0,14.0,71,0.00,FEW,OVC,0.30,WeatherDisplay:10.37,2013-01-20 22:59:00,
2013-01-20 18:04:00,8.4,0.6,29.80,WNW,283,6.0,12.0,70,0.00,FEW,OVC,0.30,WeatherDisplay:10.37,2013-01-20 23:04:00,
2013-01-20 18:09:00,8.4,0.9,29.81,West,280,6.0,12.0,71,0.00,FEW,OVC,0.30,WeatherDisplay:10.37,2013-01-20 23:09:00,
2013-01-20 18:14:00,8.4,0.9,29.81,WNW,286,5.0,9.0,71,0.00,SKC,OVC,0.30,WeatherDisplay:10.37,2013-01-20 23:14:00,
2013-01-20 18:19:00,8.3,0.8,29.82,WNW,292,1.0,9.0,71,0.00,SKC,OVC,0.30,WeatherDisplay:10.37,2013-01-20 23:19:00,
2013-01-20 18:24:00,8.1,0.7,29.83,WNW,285,3.0,7.0,71,0.00,SKC,OVC,0.30,WeatherDisplay:10.37,2013-01-20 23:24:00,
2013-01-20 18:29:00,8.0,0.5,29.83,WNW,289,2.0,10.0,71,0.00,SKC,OVC,0.30,WeatherDisplay:10.37,2013-01-20 23:29:00,
2013-01-20 18:34:00,7.8,0.4,29.83,West,273,6.0,10.0,71,0.00,SKC,OVC,0.30,WeatherDisplay:10.37,2013-01-20 23:34:00,
2013-01-20 18:39:00,7.7,0.2,29.83,WNW,293,8.0,15.0,71,0.00,SKC,OVC,0.30,WeatherDisplay:10.37,2013-01-20 23:39:00,
2013-01-20 18:44:00,7.7,-0.1,29.83,WNW,291,8.0,14.0,70,0.00,SKC,OVC,0.30,WeatherDisplay:10.37,2013-01-20 23:44:00,
2013-01-20 18:49:00,7.7,-0.1,29.83,West,280,8.0,16.0,70,0.00,SKC,OVC,0.30,WeatherDisplay:10.37,2013-01-20 23:49:00,
2013-01-20 18:54:00,7.7,-0.1,29.84,WNW,285,5.0,13.0,70,0.00,SKC,OVC,0.30,WeatherDisplay:10.37,2013-01-20 23:54:00,
2013-01-20 18:59:00,7.6,-0.1,29.84,West,278,8.0,20.0,70,0.00,SKC,OVC,0.30,WeatherDisplay:10.37,2013-01-20 23:59:00,
2013-01-20 19:04:00,7.5,-0.2,29.84,West,271,6.0,12.0,70,0.00,SKC,OVC,0.30,WeatherDisplay:10.37,2013-01-21 00:04:00,
2013-01-20 19:09:00,7.5,-0.3,29.84,WNW,290,9.0,18.0,70,0.00,SKC,OVC,0.30,WeatherDisplay:10.37,2013-01-21 00:09:00,
2013-01-20 19:14:00,7.5,-0.3,29.84,WNW,285,5.0,15.0,70,0.00,SKC,OVC,0.30,WeatherDisplay:10.37,2013-01-21 00:14:00,
2013-01-20 19:19:00,7.4,-0.3,29.85,WNW,285,8.0,22.0,70,0.00,SKC,OVC,0.30,WeatherDisplay:10.37,2013-01-21 00:19:00,
2013-01-20 19:24:00,7.3,-0.4,29.85,WNW,289,7.0,18.0,70,0.00,SKC,OVC,0.30,WeatherDisplay:10.37,2013-01-21 00:24:00,
2013-01-20 19:29:00,7.3,-0.4,29.85,West,276,6.0,15.0,70,0.00,SKC,OVC,0.30,WeatherDisplay:10.37,2013-01-21 00:29:00,
2013-01-20 19:34:00,7.2,-0.5,29.85,WNW,285,3.0,10.0,70,0.00,SKC,OVC,0.30,WeatherDisplay:10.37,2013-01-21 00:34:00,
2013-01-20 19:39:00,7.1,-0.7,29.86,WNW,286,3.0,13.0,70,0.00,SKC,OVC,0.30,WeatherDisplay:10.37,2013-01-21 00:39:00,
2013-01-20 19:44:00,6.9,-0.5,29.86,WNW,287,7.0,12.0,71,0.00,SKC,OVC,0.30,WeatherDisplay:10.37,2013-01-21 00:44:00,
2013-01-20 19:49:00,6.8,-0.6,29.86,WNW,289,7.0,12.0,71,0.00,SKC,OVC,0.30,WeatherDisplay:10.37,2013-01-21 00:49:00,
2013-01-20 19:54:00,6.7,-0.4,29.86,West,268,7.0,13.0,72,0.00,SKC,OVC,0.30,WeatherDisplay:10.37,2013-01-21 00:54:00,
2013-01-20 19:59:00,6.6,-0.5,29.86,WNW,288,3.0,12.0,72,0.00,SKC,OVC,0.30,WeatherDisplay:10.37,2013-01-21 00:59:00,
2013-01-20 20:04:00,6.5,-0.6,29.86,WNW,295,3.0,13.0,72,0.00,SKC,OVC,0.30,WeatherDisplay:10.37,2013-01-21 01:04:00,
2013-01-20 20:09:00,6.4,-0.7,29.87,WNW,294,6.0,15.0,72,0.00,SKC,OVC,0.30,WeatherDisplay:10.37,2013-01-21 01:09:00,
2013-01-20 20:14:00,6.3,-0.8,29.87,WNW,283,6.0,15.0,72,0.00,SKC,OVC,0.30,WeatherDisplay:10.37,2013-01-21 01:14:00,
2013-01-20 20:19:00,6.2,-0.9,29.88,WNW,288,6.0,17.0,72,0.00,SKC,OVC,0.30,WeatherDisplay:10.37,2013-01-21 01:19:00,
2013-01-20 20:24:00,6.1,-1.6,29.88,WNW,294,8.0,18.0,70,0.00,SKC,OVC,0.30,WeatherDisplay:10.37,2013-01-21 01:24:00,
2013-01-20 20:29:00,6.1,-1.9,29.88,WNW,284,9.0,15.0,69,0.00,SKC,OVC,0.30,WeatherDisplay:10.37,2013-01-21 01:29:00,
2013-01-20 20:34:00,6.0,-2.0,29.88,WNW,291,7.0,16.0,69,0.00,SKC,OVC,0.30,WeatherDisplay:10.37,2013-01-21 01:34:00,
2013-01-20 20:39:00,5.8,-2.2,29.89,NW,306,9.0,17.0,69,0.00,SKC,OVC,0.30,WeatherDisplay:10.37,2013-01-21 01:39:00,
2013-01-20 20:44:00,5.7,-2.3,29.89,WNW,295,5.0,16.0,69,0.00,SKC,OVC,0.30,WeatherDisplay:10.37,2013-01-21 01:44:00,
2013-01-20 20:49:00,5.5,-2.5,29.89,WNW,295,7.0,21.0,69,0.00,SKC,OVC,0.30,WeatherDisplay:10.37,2013-01-21 01:49:00,
2013-01-20 20:54:00,5.4,-2.6,29.90,WNW,291,7.0,17.0,69,0.00,SKC,OVC,0.30,WeatherDisplay:10.37,2013-01-21 01:54:00,
2013-01-20 20:59:00,5.2,-2.7,29.90,WNW,286,9.0,15.0,69,0.00,SKC,OVC,0.30,WeatherDisplay:10.37,2013-01-21 01:59:00,
2013-01-20 21:04:00,5.1,-2.8,29.90,WNW,294,7.0,14.0,69,0.00,SKC,OVC,0.30,WeatherDisplay:10.37,2013-01-21 02:04:00,
2013-01-20 21:09:00,5.0,-3.0,29.90,WNW,284,7.0,14.0,69,0.00,SKC,OVC,0.30,WeatherDisplay:10.37,2013-01-21 02:09:00,
2013-01-20 21:14:00,4.8,-3.1,29.90,West,279,7.0,15.0,69,0.00,FEW,OVC,0.30,WeatherDisplay:10.37,2013-01-21 02:14:00,
2013-01-20 21:19:00,4.7,-3.2,29.90,West,280,10.0,17.0,69,0.00,FEW,OVC,0.30,WeatherDisplay:10.37,2013-01-21 02:19:00,
2013-01-20 21:24:00,4.6,-3.3,29.90,WNW,294,6.0,12.0,69,0.00,FEW,OVC,0.30,WeatherDisplay:10.37,2013-01-21 02:24:00,
2013-01-20 21:34:00,4.3,-3.9,29.91,WNW,295,6.0,15.0,68,0.00,FEW,OVC,0.30,WeatherDisplay:10.37,2013-01-21 02:34:00,
2013-01-20 21:39:00,4.3,-3.9,29.91,WNW,291,5.0,15.0,68,0.00,FEW,OVC,0.30,WeatherDisplay:10.37,2013-01-21 02:39:00,
2013-01-20 21:44:00,4.1,-4.1,29.91,WNW,288,6.0,12.0,68,0.00,FEW,OVC,0.30,WeatherDisplay:10.37,2013-01-21 02:44:00,
2013-01-20 21:54:00,3.9,-4.0,29.92,WNW,291,8.0,14.0,69,0.00,FEW,OVC,0.30,WeatherDisplay:10.37,2013-01-21 02:54:00,
2013-01-20 21:59:00,3.8,-4.1,29.92,WNW,284,6.0,14.0,69,0.00,FEW,OVC,0.30,WeatherDisplay:10.37,2013-01-21 02:59:00,
2013-01-20 22:04:00,3.7,-4.2,29.92,WNW,291,7.0,14.0,69,0.00,FEW,OVC,0.30,WeatherDisplay:10.37,2013-01-21 03:04:00,
2013-01-20 22:09:00,3.6,-4.3,29.92,WNW,287,6.0,12.0,69,0.00,FEW,OVC,0.30,WeatherDisplay:10.37,2013-01-21 03:09:00,
2013-01-20 22:14:00,3.5,-4.1,29.93,West,276,5.0,15.0,70,0.00,FEW,OVC,0.30,WeatherDisplay:10.37,2013-01-21 03:14:00,
2013-01-20 22:19:00,3.4,-4.2,29.93,WNW,296,3.0,14.0,70,0.00,FEW,OVC,0.30,WeatherDisplay:10.37,2013-01-21 03:19:00,
2013-01-20 22:24:00,3.2,-4.4,29.93,WNW,298,3.0,13.0,70,0.00,FEW,OVC,0.30,WeatherDisplay:10.37,2013-01-21 03:24:00,
2013-01-20 22:29:00,3.1,-4.5,29.93,WNW,290,7.0,13.0,70,0.00,FEW,OVC,0.30,WeatherDisplay:10.37,2013-01-21 03:29:00,
2013-01-20 22:34:00,2.9,-4.6,29.94,WNW,293,2.0,9.0,70,0.00,FEW,OVC,0.30,WeatherDisplay:10.37,2013-01-21 03:34:00,
2013-01-20 22:44:00,2.7,-4.6,29.94,WNW,289,6.0,12.0,71,0.00,FEW,OVC,0.30,WeatherDisplay:10.37,2013-01-21 03:44:00,
2013-01-20 22:49:00,2.6,-4.7,29.94,West,276,2.0,12.0,71,0.00,FEW,OVC,0.30,WeatherDisplay:10.37,2013-01-21 03:49:00,
2013-01-20 22:54:00,2.5,-4.7,29.94,WNW,286,6.0,9.0,71,0.00,FEW,OVC,0.30,WeatherDisplay:10.37,2013-01-21 03:54:00,
2013-01-20 22:59:00,2.4,-4.6,29.95,West,280,3.0,9.0,72,0.00,FEW,OVC,0.30,WeatherDisplay:10.37,2013-01-21 03:59:00,
2013-01-20 23:04:00,2.3,-4.7,29.95,West,277,3.0,12.0,72,0.00,FEW,OVC,0.30,WeatherDisplay:10.37,2013-01-21 04:04:00,
2013-01-20 23:09:00,2.2,-4.8,29.95,WNW,282,2.0,12.0,72,0.00,FEW,OVC,0.30,WeatherDisplay:10.37,2013-01-21 04:09:00,
2013-01-20 23:14:00,2.1,-4.9,29.95,WNW,287,7.0,14.0,72,0.00,SKC,OVC,0.30,WeatherDisplay:10.37,2013-01-21 04:14:00,
2013-01-20 23:19:00,2.0,-4.9,29.95,West,275,5.0,12.0,72,0.00,SKC,OVC,0.30,WeatherDisplay:10.37,2013-01-21 04:19:00,
2013-01-20 23:24:00,1.9,-5.1,29.95,West,275,3.0,10.0,72,0.00,SKC,OVC,0.30,WeatherDisplay:10.37,2013-01-21 04:24:00,
2013-01-20 23:29:00,1.8,-5.2,29.95,WNW,283,5.0,12.0,72,0.00,SKC,OVC,0.30,WeatherDisplay:10.37,2013-01-21 04:29:00,
2013-01-20 23:34:00,1.7,-5.5,29.95,West,278,5.0,10.0,71,0.00,SKC,OVC,0.30,WeatherDisplay:10.37,2013-01-21 04:34:00,
2013-01-20 23:39:00,1.6,-5.6,29.95,West,277,5.0,13.0,71,0.00,SKC,OVC,0.30,WeatherDisplay:10.37,2013-01-21 04:39:00,
2013-01-20 23:49:00,1.4,-5.8,29.96,WNW,287,3.0,12.0,71,0.00,SKC,OVC,0.30,WeatherDisplay:10.37,2013-01-21 04:49:00,
2013-01-20 23:54:00,1.3,-5.9,29.96,West,275,3.0,12.0,71,0.00,SKC,OVC,0.30,WeatherDisplay:10.37,2013-01-21 04:54:00,
2013-01-20 23:59:00,1.2,-6.0,29.96,West,275,2.0,6.0,71,0.00,RA,OVC,0.00,WeatherDisplay:10.37,2013-01-21 04:59:00,